CAPE
1185 1408 1613 1812 1935 2127 2024 1997 2084 2226 2338 2493 2978 3134 3160 3544 3546 3118 2985 2761 2636 2804 2891 2607 2856 2903 2876 2823 2792 2562 2665 2692 1836 2473 2687 2428 2566 2978 2402 2041 1883 1887 1712
1395 1753 1697 1925 2041 2292 2386 2312 2427 2594 2967 3223 2980 2607 2340 2092 1921 1697 1387 941 546 362 256 373 575 422 805 941 955 1063 1460 1931 1992 2105 2656 2697 2764 2805 2503 2433 2682 2268 2273
1588 1614 1971 2356 2418 2840 3126 2846 2482 2325 2101 1622 1115 1052 808 444 86 41 33 44 56 64 43 82 222 374 595 609 924 784 896 921 1326 1952 2417 2618 2802 2914 2344 2499 2631 2667 2387
1616 2031 2606 2094 1722 1191 961 697 528 351 410 292 78 54 51 29 0 8 7 0 0 0 0 0 0 5 59 199 328 566 871 1302 1980 1583 1747 2065 2131 2447 2384 2221 2267 2443 1994
2035 1797 871 501 299 138 90 9 1 3 5 0 0 1 0 0 0 0 0 0 1 0 1 2 1 2 0 0 0 0 22 71 225 615 1612 1774 2003 2060 2299 2277 2088 2101 986
648 290 18 0 0 0 0 0 0 0 0 0 0 0 0 0 0 0 0 0 0 4 2 1 1 0 3 8 10 34 101 186 332 414 423 891 1634 1752 1687 2072 1853 1227 692
0 0 0 0 0 0 0 0 0 0 0 0 1 2 3 0 0 0 0 0 1 3 2 10 17 11 72 5 0 0 91 320 398 405 576 735 1091 1501 1403 1697 1914 1339 1078
0 0 0 0 0 0 0 0 0 0 0 0 1 4 2 1 0 0 0 0 2 4 2 2 4 12 0 0 1 0 0 12 542 744 723 1016 1100 1231 1421 1600 1586 1231 959
0 0 0 0 0 0 0 0 0 0 0 0 1 2 4 2 0 0 0 0 0 0 2 2 7 8 0 0 3 2 2 0 305 746 786 913 931 1180 1664 1533 1089 853 507
0 0 0 0 0 0 0 0 0 0 0 0 4 5 2 6 0 0 0 0 1 2 10 8 8 0 0 0 0 3 2 0 364 855 1016 694 754 1145 1204 1475 861 578 215
0 0 0 0 0 0 0 0 0 0 4 6 6 6 3 0 0 0 0 0 0 3 7 0 2 0 0 0 0 3 1 1 0 655 805 741 810 1000 1030 898 720 544 149
0 0 0 0 0 0 0 0 2 4 2 0 0 0 0 0 0 0 0 0 0 9 12 6 3 0 0 0 1 1 0 2 58 726 743 689 795 596 327 340 377 287 137
0 0 0 0 0 0 0 0 0 0 0 0 0 0 0 0 0 0 0 0 0 5 6 0 0 1 0 1 1 0 3 3 3 0 27 35 91 34 5 5 6 3 1
0 0 0 0 0 0 0 0 0 0 0 0 0 0 0 0 0 0 0 0 0 3 13 0 0 0 0 0 1 1 2 3 3 3 3 3 2 1 1 1 4 1 0
0 0 0 0 0 0 0 0 0 0 0 0 0 0 0 0 0 0 0 0 0 0 0 4 0 0 1 3 13 0 1 0 0 2 2 3 3 3 2 0 0 0 13
0 0 0 0 0 0 0 0 0 0 0 0 0 0 0 0 0 0 0 0 0 0 10 5 0 0 0 1 2 0 0 0 0 1 1 0 0 0 11 0 0 0 0
0 0 0 0 0 0 0 0 0 0 0 0 0 0 0 0 0 0 0 0 0 0 16 27 19 22 0 0 1 0 0 0 1 0 0 0 0 0 0 0 0 0 4
0 0 0 0 0 0 0 1 0 4 8 5 0 0 0 0 0 0 0 0 5 3 10 10 28 51 34 20 1 0 0 0 0 0 2 0 0 0 0 0 0 0 0
0 0 0 0 0 0 0 0 1 9 12 12 16 0 0 0 0 0 0 1 36 23 6 17 16 38 53 37 54 30 3 0 0 0 0 0 0 0 0 0 0 0 0
0 0 0 0 0 0 6 17 15 5 9 19 17 22 29 8 23 26 14 15 34 24 37 15 21 54 89 81 47 27 3 18 14 16 4 8 2 0 0 0 0 0 0
0 0 0 0 6 11 16 4 12 12 20 24 29 17 0 0 10 18 26 26 30 31 40 41 17 42 76 133 140 123 42 50 35 55 76 59 9 20 17 4 1 0 2
0 2 0 0 1 13 11 12 11 15 21 32 21 26 0 0 12 16 32 47 46 48 71 61 106 33 107 170 190 110 136 63 43 53 59 83 80 38 36 26 43 50 42
14 21 8 0 2 15 8 26 38 32 30 35 40 32 5 26 24 27 57 42 30 61 89 78 76 83 62 204 353 190 155 176 197 20 44 50 32 46 37 36 25 31 34
96 76 41 54 42 31 47 90 145 18 21 44 51 38 34 56 40 52 73 54 70 91 117 112 81 72 92 141 73 21 177 4 244 30 102 50 11 29 13 9 7 28 34
158 221 186 102 93 140 159 123 132 5 37 36 22 35 61 20 56 32 42 38 101 116 147 174 147 187 302 178 136 211 0 0 0 0 14 67 56 57 56 33 22 23 10
142 154 115 133 344 368 340 388 174 89 129 146 50 29 56 56 30 50 92 145 179 171 237 186 288 327 246 271 441 26 0 0 0 0 0 22 52 55 32 17 8 4 5
CIN
-230 -229 -230 -224 -209 -208 -186 -171 -121 -72 -50 -38 -18 -11 -7 -3 -0 -2 -3 -3 -6 -1 -1 -1 -0 -2 -0 -1 -2 -3 -0 -3 -10 -18 -22 -14 -5 -3 -7 -15 -41 -42 -29
-184 -159 -192 -172 -182 -166 -147 -140 -128 -80 -49 -22 -32 -52 -60 -65 -55 -71 -101 -152 -192 -199 -210 -161 -142 -131 -90 -70 -44 -25 -2 -2 -2 -5 -6 -13 -4 -1 -11 -17 -3 -3 -3
-184 -66 -91 -106 -47 -58 -64 -73 -145 -146 -128 -170 -243 -203 -237 -294 -390 -385 -384 -399 -341 -299 -199 -217 -170 -120 -95 -94 -57 -56 -40 -32 -5 -3 -1 -1 -3 -0 -6 -9 -4 -1 -11
-312 -79 -89 -207 -206 -276 -312 -324 -348 -386 -379 -412 -512 -544 -507 -491 -0 -337 -262 -0 -0 -0 -0 -0 -0 -74 -169 -125 -99 -68 -22 -1 -0 -2 -1 -1 -3 -15 -8 -10 -9 -9 -10
-153 -197 -364 -419 -439 -436 -538 -178 -145 -144 -638 -0 -0 -77 -0 -0 -0 -0 -0 -0 -0 -0 -0 -0 -1 -0 -0 -0 -0 -0 -41 -143 -98 -44 -0 -1 -0 -1 -0 -4 -3 -7 -131
-248 -351 -558 -0 -0 -0 -0 -0 -0 -0 -0 -0 -0 -0 -0 -0 -0 -0 -0 -0 -0 -0 -0 -0 -2 -0 -1 -4 -71 -146 -120 -103 -83 -64 -83 -5 -1 -1 -8 -3 -13 -24 -124
-0 -0 -0 -0 -0 -0 -0 -0 -0 -0 -0 -0 -0 -0 -0 -0 -0 -0 -0 -0 -0 -0 -2 -0 -0 -0 -67 -7 -0 -0 -98 -79 -68 -62 -60 -31 -0 -1 -6 -8 -4 -10 -31
-0 -0 -0 -0 -0 -0 -0 -0 -0 -0 -0 -0 -0 -0 -0 -0 -0 -0 -0 -0 -0 -0 -1 -1 -0 -4 -1 -0 -0 -0 -0 -104 -44 -13 -29 -5 -5 -4 -5 -6 -7 -7 -8
-0 -0 -0 -0 -0 -0 -0 -0 -0 -0 -0 -0 -0 -0 -1 -1 -0 -0 -0 -0 -0 -0 -1 -1 -6 -11 -0 -0 -0 -0 -0 -0 -82 -9 -23 -14 -24 -25 -3 -8 -2 -13 -53
-0 -0 -0 -0 -0 -0 -0 -0 -0 -0 -0 -0 -0 -0 -1 -0 -0 -0 -0 -0 -1 -2 -0 -0 -1 -0 -0 -0 -0 -0 -0 -0 -65 -0 -0 -49 -33 -19 -15 -2 -20 -65 -96
-0 -0 -0 -0 -0 -0 -0 -0 -0 -0 -0 -1 -1 -1 -0 -0 -0 -0 -0 -0 -1 -1 -2 -1 -0 -0 -0 -0 -0 -0 -0 -1 -0 -7 -1 -5 -5 -1 -3 -4 -7 -12 -103
-0 -0 -0 -0 -0 -0 -0 -0 -0 -1 -0 -0 -0 -0 -0 -0 -0 -0 -0 -0 -0 -2 -1 -0 -0 -0 -0 -0 -0 -0 -0 -69 -195 -1 -0 -3 -1 -13 -68 -63 -34 -40 -69
-0 -0 -0 -0 -0 -0 -0 -0 -0 -0 -0 -0 -0 -0 -0 -0 -0 -0 -0 -0 -3 -2 -1 -0 -0 -1 -0 -0 -0 -0 -0 -0 -0 -0 -2 -49 -78 -122 -41 -15 -12 -13 -11
-0 -0 -0 -0 -0 -0 -0 -0 -0 -0 -0 -0 -0 -0 -0 -0 -0 -0 -0 -0 -0 -1 -2 -0 -1 -0 -0 -0 -0 -0 -0 -0 -0 -0 -0 -0 -0 -0 -0 -0 -0 -0 -0
-0 -0 -0 -0 -0 -0 -0 -0 -0 -0 -0 -0 -0 -0 -0 -0 -0 -0 -0 -0 -0 -0 -0 -2 -0 -0 -1 -1 -0 -0 -0 -0 -0 -0 -0 -0 -0 -0 -0 -0 -0 -0 -4
-0 -0 -0 -0 -0 -0 -0 -0 -0 -0 -0 -0 -0 -0 -0 -0 -0 -0 -0 -0 -0 -0 -4 -1 -0 -0 -0 -0 -0 -0 -0 -0 -0 -0 -0 -0 -0 -0 -0 -0 -0 -0 -0
-0 -0 -0 -0 -0 -0 -0 -0 -0 -0 -0 -0 -0 -0 -0 -0 -0 -0 -0 -0 -0 -0 -3 -2 -1 -1 -0 -0 -0 -0 -0 -0 -6 -0 -0 -0 -0 -0 -0 -0 -0 -0 -15
-0 -0 -0 -0 -0 -0 -0 -1 -0 -1 -3 -1 -0 -0 -0 -0 -0 -0 -0 -1 -20 -7 -2 -1 -1 -2 -5 -1 -1 -0 -0 -0 -0 -0 -1 -0 -0 -0 -0 -0 -0 -0 -0
-0 -0 -0 -0 -0 -0 -0 -0 -2 -2 -2 -1 -2 -0 -23 -0 -0 -0 -0 -76 -7 -2 -5 -1 -3 -2 -3 -11 -9 -31 -15 -0 -0 -0 -0 -0 -0 -0 -0 -12 -0 -0 -0
-0 -0 -0 -0 -0 -0 -3 -4 -1 -2 -1 -3 -1 -2 -5 -7 -8 -12 -33 -20 -5 -6 -1 -7 -7 -6 -10 -2 -22 -22 -53 -55 -44 -52 -37 -43 -33 -0 -0 -0 -0 -0 -0
-0 -0 -0 -0 -2 -2 -2 -4 -2 -2 -3 -1 -2 -8 -0 -0 -9 -16 -6 -9 -4 -3 -2 -4 -14 -13 -6 -6 -6 -7 -44 -64 -30 -28 -26 -20 -52 -30 -32 -34 -64 -3 -56
-0 -1 -0 -0 -1 -3 -3 -2 -6 -2 -1 -2 -6 -6 -0 -1 -18 -10 -6 -4 -2 -2 -4 -11 -5 -2 -4 -2 -1 -4 -6 -13 -6 -18 -22 -25 -23 -20 -5 -11 -2 -8 -10
-3 -2 -6 -2 -8 -5 -13 -2 -4 -12 -8 -3 -4 -4 -31 -10 -11 -3 -3 -6 -2 -0 -2 -5 -3 -5 -2 -6 -9 -4 -1 -4 -2 -17 -7 -7 -7 -5 -6 -3 -3 -1 -1
-4 -3 -8 -9 -9 -9 -3 -1 -2 -25 -10 -2 -2 -3 -3 -10 -7 -4 -2 -4 -7 -1 -1 -2 -3 -7 -4 -1 -3 -30 -2 -18 -3 -10 -5 -11 -17 -9 -16 -17 -20 -6 -3
-2 -3 -5 -9 -12 -3 -6 -3 -9 -63 -19 -10 -6 -4 -1 -28 -6 -4 -7 -5 -3 -1 -2 -2 -1 -2 -1 -0 -1 -2 -0 -0 -0 -0 -8 -3 -1 -1 -2 -2 -3 -1 -2
-2 -8 -3 -4 -1 -4 -2 -2 -1 -9 -8 -9 -3 -3 -3 -16 -18 -10 -2 -7 -2 -2 -1 -2 -1 -2 -2 -2 -5 -48 -0 -0 -0 -0 -0 -8 -4 -4 -6 -5 -6 -10 -2
Wind_Speed
11 8 7 5 4 3 4 5 7 12 18 20 21 22 22 23 25 28 26 26 26 29 30 31 30 30 29 29 28 26 28 28 26 28 33 32 34 24 19 18 16 18 19
8 10 8 8 7 7 10 10 12 14 17 21 24 25 25 27 28 28 29 30 32 31 33 34 35 35 34 34 33 33 33 35 33 31 31 35 34 31 27 26 24 22 18
6 17 11 9 12 12 13 16 16 15 19 22 26 27 30 29 30 30 30 32 33 35 35 36 37 36 35 35 35 37 37 38 38 33 33 32 33 32 27 26 25 23 23
4 7 5 7 13 16 16 16 18 20 22 24 24 26 26 28 29 30 33 35 37 38 39 39 39 38 38 38 38 38 39 39 38 37 36 35 34 34 32 29 28 24 23
5 4 4 8 10 13 14 17 20 23 24 27 24 25 27 28 30 34 37 39 41 41 40 39 38 38 40 40 39 38 39 40 39 39 37 35 32 30 30 29 27 25 24
4 5 7 11 9 11 16 20 20 20 26 26 26 27 30 29 35 38 40 40 39 39 39 39 38 38 38 37 37 35 32 32 33 36 38 37 33 32 28 27 25 25 29
3 7 10 11 12 17 19 21 21 24 24 22 24 27 30 31 38 40 40 38 37 39 40 40 39 37 38 36 40 42 39 34 28 30 31 30 33 31 30 25 22 20 23
6 9 10 13 17 21 24 19 11 15 22 23 26 28 29 31 36 38 40 36 37 38 38 38 39 39 36 41 43 43 39 35 36 33 29 30 29 30 26 23 24 17 17
8 10 15 16 23 18 12 11 13 19 22 23 25 27 29 28 33 39 40 37 36 38 38 37 38 36 41 44 44 40 40 37 35 36 31 30 31 30 20 20 16 13 18
14 17 14 12 12 11 11 12 15 18 20 22 23 24 25 28 31 37 38 37 38 39 36 36 36 41 45 44 41 39 36 34 34 33 25 26 24 21 16 13 12 13 15
10 11 13 13 13 12 11 13 16 19 19 21 21 20 24 26 30 35 38 36 39 38 37 38 38 41 42 41 39 37 37 36 36 29 23 23 21 16 14 9 7 8 12
9 12 14 13 13 13 14 17 17 17 19 19 21 22 22 26 30 34 36 37 35 38 38 39 38 40 40 38 36 38 36 31 27 21 22 21 17 12 12 12 12 12 14
10 12 12 13 13 14 16 16 16 17 18 20 22 23 25 27 30 34 35 36 36 36 37 37 37 36 37 36 35 34 31 28 25 21 22 20 16 13 12 13 13 12 11
10 11 12 13 14 14 15 16 17 17 18 19 21 23 24 26 31 33 34 35 35 35 35 38 36 34 34 34 34 32 30 27 24 21 20 19 16 14 13 15 15 13 12
10 11 12 13 14 14 16 17 16 18 19 20 20 22 23 26 29 31 31 32 33 32 32 35 36 36 36 34 31 32 30 27 25 22 21 19 18 17 15 14 16 17 13
10 10 10 12 12 13 14 14 16 16 16 17 18 19 21 21 25 27 28 29 30 29 30 33 35 36 34 34 32 31 29 28 25 22 21 19 19 17 16 11 15 13 16
10 10 10 11 12 13 12 11 12 12 12 13 14 15 16 17 20 22 22 24 25 26 29 29 32 32 33 35 34 30 29 27 24 25 22 20 18 17 17 14 15 15 17
9 10 10 10 11 12 12 13 14 15 13 11 10 12 13 12 15 17 19 25 25 25 27 27 29 29 28 29 32 32 31 29 26 23 22 22 21 18 16 16 15 14 13
8 8 8 9 10 12 12 13 13 14 14 15 16 10 10 10 12 14 15 17 22 24 25 23 24 25 27 25 25 26 29 30 27 26 24 20 21 20 19 16 15 13 13
7 8 7 8 10 10 11 12 12 13 12 13 15 17 15 18 19 17 19 21 19 22 22 20 21 21 25 24 22 21 22 24 26 26 25 22 21 20 20 19 19 17 14
7 7 6 9 9 9 10 11 13 14 13 16 16 14 17 17 18 20 18 20 22 23 22 23 22 21 18 20 23 25 18 20 21 22 22 22 22 21 20 19 19 18 16
7 6 6 7 9 11 11 11 12 12 12 16 18 13 12 14 13 13 19 20 19 20 19 19 18 20 17 18 17 18 18 20 20 19 18 21 20 21 22 22 21 19 18
8 8 7 6 8 10 10 9 9 15 19 16 13 13 12 11 17 10 15 19 13 16 17 16 15 16 14 16 15 17 16 19 18 16 14 14 16 15 8 16 16 19 19
7 9 10 11 11 10 12 9 11 14 19 14 14 11 10 12 9 15 16 14 13 13 13 12 15 15 13 13 15 17 15 15 11 14 12 8 13 12 15 19 18 12 14
9 12 12 11 10 12 13 11 11 11 11 15 13 14 11 15 6 18 17 10 14 12 10 12 10 11 11 14 12 16 18 15 13 11 10 12 14 17 16 14 16 18 22
8 10 11 13 13 12 12 11 9 9 9 24 10 13 16 10 6 11 11 10 8 9 10 10 11 11 9 10 13 16 14 13 13 12 12 12 13 15 15 15 19 19 22
Wind_Direction
207 211 211 219 241 277 297 307 320 320 311 312 316 321 324 328 328 327 329 328 326 325 324 321 319 318 315 313 310 306 305 303 296 299 301 304 305 304 300 299 302 304 302
260 274 276 291 293 305 314 316 319 316 316 314 315 319 323 325 327 328 328 329 327 326 323 320 317 316 313 310 308 305 303 302 301 298 298 299 300 300 298 295 297 301 296
288 275 305 306 306 312 320 320 319 326 319 316 313 317 318 323 326 328 329 330 329 325 323 320 317 316 313 311 308 305 303 301 301 297 297 295 295 295 295 292 294 294 296
266 238 306 332 310 309 312 319 319 320 319 320 324 324 327 329 330 331 331 329 326 324 321 318 316 314 312 311 309 306 304 302 300 298 296 295 295 295 294 291 290 290 292
291 280 352 19 342 322 321 322 320 323 323 323 324 333 334 332 333 330 328 327 324 322 321 320 318 316 313 310 308 306 304 302 300 299 299 297 295 293 290 291 286 285 290
30 23 9 2 1 355 332 328 326 333 332 326 334 332 327 333 331 329 328 327 326 325 323 321 320 318 316 314 312 310 306 304 301 299 297 293 295 295 294 289 284 284 289
57 12 359 2 351 342 334 339 335 324 333 343 338 335 332 332 330 331 330 330 328 326 325 324 323 321 318 320 316 312 310 309 301 298 295 292 291 293 292 289 284 279 285
19 9 355 347 334 332 328 331 354 350 342 338 338 337 336 336 336 336 334 334 332 330 329 328 325 323 324 320 317 313 312 309 306 302 299 297 295 291 287 287 289 276 286
349 342 338 333 334 338 0 1 351 348 344 342 342 342 341 343 344 342 341 339 338 335 333 332 329 328 322 318 316 316 312 310 306 303 301 298 295 294 286 284 277 263 278
327 332 354 22 24 16 5 1 357 353 348 346 346 348 349 347 348 347 347 345 342 340 340 337 335 329 322 319 319 319 316 314 308 308 310 304 302 295 285 274 266 259 281
356 4 16 13 15 16 13 6 1 354 353 352 352 357 356 355 352 349 347 349 346 344 343 341 338 333 328 325 323 321 315 308 304 309 312 308 302 301 298 287 261 270 279
16 12 10 12 13 11 5 1 359 359 359 1 359 358 2 360 358 354 352 351 355 350 347 344 342 337 335 332 331 324 320 317 312 315 313 309 306 304 301 301 294 298 298
12 9 11 15 13 7 1 3 5 5 3 2 1 1 1 3 1 358 356 354 355 356 356 354 351 350 348 349 342 337 335 333 328 324 319 316 314 315 313 309 309 312 322
13 14 17 10 5 5 9 5 4 7 7 5 5 6 7 6 5 2 1 359 359 0 1 1 1 2 360 357 355 352 349 344 341 337 333 328 323 320 318 313 310 308 306
13 13 10 8 6 7 4 6 10 6 6 7 7 9 7 6 6 9 9 8 6 6 8 8 6 6 3 357 357 358 358 358 355 349 343 343 340 327 322 321 319 311 320
9 6 8 8 12 13 14 14 12 14 14 16 17 15 10 13 10 10 13 16 15 18 18 14 14 12 5 4 8 7 4 3 359 355 355 352 351 356 329 359 11 327 1
6 8 11 10 8 9 9 12 11 14 20 22 24 22 22 22 20 21 23 22 26 25 21 25 19 15 16 18 15 15 13 8 4 9 4 358 348 350 358 352 8 350 336
12 10 13 13 11 10 10 10 5 4 7 17 30 32 32 38 31 29 30 17 27 30 27 33 33 35 33 36 31 27 20 17 11 3 7 14 8 359 351 353 355 355 320
15 14 14 13 14 7 7 6 3 4 6 7 2 20 31 39 32 32 30 29 23 23 30 38 42 42 37 39 38 42 32 23 21 26 22 17 15 18 17 7 3 0 359
12 6 8 9 6 358 1 1 3 7 10 7 360 0 15 7 16 22 27 21 29 24 29 42 45 49 41 43 49 47 47 45 39 36 38 28 22 19 23 26 23 24 5
359 360 354 350 351 358 355 357 358 359 3 353 354 3 4 9 13 10 20 21 15 20 25 27 33 44 59 53 45 42 67 64 62 58 53 44 44 40 30 32 41 42 58
347 343 348 337 341 344 347 349 349 351 354 345 341 358 16 16 19 25 10 10 20 22 30 33 41 43 62 67 79 79 84 68 71 80 80 65 66 48 22 20 21 22 12
334 334 332 331 333 336 335 336 342 338 331 334 349 355 8 15 360 31 19 9 37 31 33 39 54 58 76 73 95 86 91 81 86 93 108 106 100 101 110 96 89 65 52
327 325 323 320 317 317 315 326 329 330 321 330 337 352 8 8 34 9 11 30 40 45 58 72 60 69 96 101 81 62 84 85 121 103 109 123 87 92 72 49 48 72 56
319 324 323 312 313 307 310 299 320 320 323 317 331 336 355 354 57 353 13 61 39 54 95 73 118 116 111 74 94 59 51 70 85 91 88 74 64 48 45 48 39 23 5
324 326 325 329 325 314 301 293 304 314 321 291 320 329 331 8 159 28 46 51 92 103 106 121 137 98 130 151 73 49 61 69 68 64 60 52 43 32 30 26 15 9 358